�������l�o���
Date,Time,MP-1(��Sv/h),MP-2(��Sv/h),MP-3(��Sv/h),MP-4(��Sv/h),MP-5(��Sv/h),MP-6(��Sv/h),MP-7(��Sv/h),MP-8(��Sv/h),����,����(m/s),���J
2017/09/16,00:00,0.958,1.534,0.995,1.817,1.271,0.514,0.948,0.873,���k��,3.4,�L
2017/09/16,00:10,0.958,1.534,0.996,1.816,1.272,0.516,0.948,0.874,�k��,2.6,�L
2017/09/16,00:20,0.958,1.531,0.995,1.812,1.272,0.516,0.948,0.872,�k�k��,2.0,�L
2017/09/16,00:30,0.958,1.532,0.997,1.815,1.272,0.515,0.949,0.875,��,0.6,�L
2017/09/16,00:40,0.960,1.531,0.993,1.819,1.271,0.516,0.951,0.874,�k,0.6,�L
2017/09/16,00:50,0.959,1.531,0.995,1.817,1.272,0.515,0.950,0.872,�k�k��,0.6,��
2017/09/16,01:00,0.957,1.531,0.995,1.817,1.271,0.517,0.949,0.873,���k��,1.4,�L
2017/09/16,01:10,0.957,1.535,0.996,1.817,1.268,0.516,0.951,0.873,�k�k��,1.1,�L
2017/09/16,01:20,0.958,1.534,0.995,1.815,1.270,0.517,0.950,0.872,�k�k��,1.4,��
2017/09/16,01:30,0.958,1.532,0.995,1.817,1.273,0.514,0.949,0.873,�k��,1.2,��
2017/09/16,01:40,0.958,1.531,0.994,1.815,1.272,0.517,0.949,0.872,�k�k��,1.2,��
2017/09/16,01:50,0.960,1.534,0.991,1.815,1.271,0.516,0.947,0.873,�k�k��,1.4,��
2017/09/16,02:00,0.959,1.533,0.995,1.814,1.273,0.515,0.949,0.874,�k��,1.2,��
2017/09/16,02:10,0.959,1.533,0.994,1.819,1.271,0.515,0.950,0.873,�k,0.6,��
2017/09/16,02:20,0.959,1.531,0.995,1.814,1.268,0.514,0.948,0.872,��,1.2,��
2017/09/16,02:30,0.958,1.532,0.995,1.814,1.272,0.515,0.949,0.873,-,CALM,��
2017/09/16,02:40,0.957,1.529,0.995,1.815,1.272,0.515,0.948,0.873,�쐼,1.2,��
2017/09/16,02:50,0.959,1.530,0.996,1.816,1.269,0.514,0.948,0.874,��,0.9,��
2017/09/16,03:00,0.957,1.529,0.994,1.813,1.271,0.516,0.948,0.873,��쐼,1.1,��
2017/09/16,03:10,0.958,1.528,0.996,1.817,1.272,0.515,0.949,0.873,�쓌,0.6,��
2017/09/16,03:20,0.958,1.535,0.995,1.816,1.270,0.518,0.948,0.875,-,CALM,��
2017/09/16,03:30,0.957,1.529,0.995,1.816,1.267,0.515,0.949,0.874,��쐼,1.2,��
2017/09/16,03:40,0.958,1.531,0.996,1.816,1.271,0.515,0.950,0.873,�쐼,1.2,��
2017/09/16,03:50,0.958,1.530,0.995,1.816,1.270,0.514,0.949,0.874,��쐼,1.4,��
2017/09/16,04:00,0.956,1.533,0.992,1.816,1.268,0.516,0.950,0.872,�쐼,1.2,��
2017/09/16,04:10,0.956,1.532,0.995,1.817,1.269,0.514,0.948,0.872,���쐼,0.9,�L
2017/09/16,04:20,0.957,1.531,0.994,1.816,1.270,0.516,0.948,0.873,��쐼,0.9,�L
2017/09/16,04:30,0.958,1.529,0.993,1.817,1.269,0.515,0.949,0.873,���쐼,1.2,��
2017/09/16,04:40,0.957,1.530,0.995,1.814,1.270,0.515,0.949,0.871,�쐼,0.9,��
2017/09/16,04:50,0.958,1.532,0.994,1.815,1.270,0.515,0.949,0.871,���쐼,0.8,��
2017/09/16,05:00,0.958,1.530,0.994,1.817,1.271,0.514,0.948,0.872,��쐼,0.6,��
2017/09/16,05:10,0.957,1.528,0.994,1.817,1.270,0.516,0.949,0.873,�쐼,0.8,��
2017/09/16,05:20,0.954,1.531,0.993,1.814,1.269,0.516,0.950,0.872,��,0.6,��
2017/09/16,05:30,0.958,1.530,0.995,1.813,1.271,0.515,0.949,0.871,-,CALM,��
2017/09/16,05:40,0.957,1.530,0.994,1.815,1.270,0.515,0.946,0.874,-,CALM,��
2017/09/16,05:50,0.956,1.532,0.996,1.816,1.268,0.513,0.950,0.873,-,CALM,��
2017/09/16,06:00,0.959,1.533,0.994,1.812,1.270,0.515,0.948,0.872,��,0.9,��
2017/09/16,06:10,0.956,1.529,0.994,1.815,1.270,0.517,0.949,0.872,-,CALM,��
2017/09/16,06:20,0.958,1.531,0.994,1.813,1.269,0.515,0.948,0.873,-,CALM,��
2017/09/16,06:30,0.959,1.530,0.996,1.815,1.271,0.516,0.950,0.875,�쓌,0.6,��
2017/09/16,06:40,0.955,1.531,0.995,1.817,1.269,0.514,0.947,0.872,-,CALM,��
2017/09/16,06:50,0.959,1.531,0.996,1.816,1.269,0.515,0.949,0.875,-,CALM,��
2017/09/16,07:00,0.958,1.533,0.995,1.815,1.268,0.516,0.949,0.873,-,CALM,��
2017/09/16,07:10,0.959,1.530,0.994,1.817,1.269,0.514,0.949,0.874,-,CALM,��
2017/09/16,07:20,0.959,1.531,0.995,1.816,1.267,0.515,0.950,0.874,-,CALM,��
2017/09/16,07:30,0.958,1.532,0.994,1.819,1.269,0.516,0.949,0.874,�k��,0.6,�L
2017/09/16,07:40,0.957,1.533,0.996,1.814,1.268,0.516,0.947,0.871,-,CALM,�L
2017/09/16,07:50,0.957,1.532,0.997,1.816,1.268,0.514,0.948,0.872,���쓌,0.8,�L
2017/09/16,08:00,0.957,1.529,0.997,1.817,1.270,0.516,0.949,0.873,���쓌,1.1,�L
2017/09/16,08:10,0.959,1.532,0.996,1.816,1.274,0.515,0.948,0.873,���k��,1.2,��
2017/09/16,08:20,0.959,1.530,0.996,1.818,1.270,0.515,0.948,0.874,�쓌,1.1,��
2017/09/16,08:30,0.957,1.530,0.995,1.817,1.271,0.514,0.950,0.872,���쓌,1.1,��
2017/09/16,08:40,0.956,1.530,0.996,1.815,1.271,0.516,0.949,0.874,��,1.2,��
2017/09/16,08:50,0.956,1.528,0.996,1.816,1.271,0.513,0.949,0.874,���k��,1.5,��
2017/09/16,09:00,0.956,1.529,0.995,1.815,1.273,0.512,0.949,0.873,�k�k��,1.2,��
2017/09/16,09:10,0.956,1.530,0.995,1.815,1.271,0.512,0.946,0.873,���k��,1.7,��
2017/09/16,09:20,0.956,1.526,0.995,1.819,1.269,0.513,0.946,0.873,���k��,1.7,��
2017/09/16,09:30,0.955,1.525,0.994,1.818,1.268,0.512,0.947,0.872,��,2.3,��
2017/09/16,09:40,0.956,1.525,0.992,1.818,1.267,0.513,0.948,0.870,���쓌,3.1,��
2017/09/16,09:50,0.957,1.527,0.991,1.820,1.269,0.511,0.949,0.868,���쓌,2.9,��
2017/09/16,10:00,0.957,1.526,0.990,1.819,1.269,0.513,0.945,0.870,��,2.3,��
2017/09/16,10:10,0.957,1.527,0.993,1.819,1.268,0.513,0.947,0.871,���쓌,2.6,��
2017/09/16,10:20,0.957,1.526,0.994,1.818,1.270,0.513,0.950,0.871,���쓌,2.5,��
2017/09/16,10:30,0.954,1.526,0.994,1.818,1.270,0.513,0.948,0.871,���쓌,2.0,��
2017/09/16,10:40,0.957,1.529,0.992,1.816,1.270,0.514,0.947,0.870,���쓌,2.3,��
2017/09/16,10:50,0.957,1.526,0.993,1.818,1.271,0.514,0.949,0.872,���쓌,2.6,��
2017/09/16,11:00,0.957,1.525,0.994,1.816,1.270,0.512,0.950,0.870,���쓌,2.5,��
2017/09/16,11:10,0.958,1.528,0.993,1.818,1.271,0.514,0.949,0.871,���쓌,2.8,��
2017/09/16,11:20,0.957,1.527,0.994,1.818,1.270,0.514,0.946,0.869,�쓌,2.3,��
2017/09/16,11:30,0.959,1.528,0.994,1.819,1.270,0.514,0.948,0.871,���쓌,2.6,��
2017/09/16,11:40,0.958,1.528,0.994,1.820,1.272,0.512,0.947,0.870,�쓌,4.0,��
2017/09/16,11:50,0.958,1.529,0.995,1.818,1.273,0.514,0.951,0.869,��,3.6,��
2017/09/16,12:00,0.955,1.530,0.994,1.820,1.270,0.513,0.947,0.870,���쓌,2.6,��
2017/09/16,12:10,0.958,1.533,0.996,1.818,1.274,0.513,0.948,0.872,���쓌,3.4,��
2017/09/16,12:20,0.958,1.533,0.997,1.817,1.273,0.512,0.948,0.869,���쓌,3.6,��
2017/09/16,12:30,0.958,1.531,0.994,1.819,1.271,0.514,0.948,0.871,��,3.0,��
2017/09/16,12:40,0.957,1.535,0.996,1.820,1.275,0.511,0.950,0.872,���쓌,3.3,��
2017/09/16,12:50,0.959,1.533,0.994,1.823,1.273,0.512,0.950,0.872,��,3.7,��
2017/09/16,13:00,0.958,1.535,0.996,1.817,1.274,0.514,0.949,0.870,���쓌,3.4,��
2017/09/16,13:10,0.959,1.534,0.995,1.819,1.271,0.514,0.948,0.870,���쓌,3.5,��
2017/09/16,13:20,0.958,1.529,0.996,1.821,1.274,0.511,0.948,0.872,���쓌,4.0,��
2017/09/16,13:30,0.959,1.529,0.995,1.819,1.274,0.514,0.949,0.871,���쓌,3.3,��
2017/09/16,13:40,0.960,1.533,0.995,1.822,1.275,0.514,0.949,0.870,���쓌,3.6,��
2017/09/16,13:50,0.959,1.533,0.994,1.819,1.275,0.514,0.948,0.871,���쓌,4.6,��
2017/09/16,14:00,0.959,1.528,0.997,1.819,1.273,0.513,0.949,0.871,���쓌,3.8,��
2017/09/16,14:10,0.958,1.533,0.995,1.823,1.275,0.516,0.948,0.872,���쓌,4.0,��
2017/09/16,14:20,0.960,1.536,0.995,1.818,1.275,0.516,0.949,0.873,���쓌,3.8,��
2017/09/16,14:30,0.960,1.537,0.997,1.822,1.274,0.514,0.949,0.871,���쓌,3.8,��
2017/09/16,14:40,0.960,1.536,0.994,1.822,1.273,0.515,0.949,0.872,���쓌,3.7,��
2017/09/16,14:50,0.958,1.533,0.998,1.820,1.271,0.514,0.949,0.871,���쓌,3.9,��
2017/09/16,15:00,0.960,1.533,0.998,1.817,1.278,0.514,0.949,0.871,���쓌,4.3,��
2017/09/16,15:10,0.958,1.536,0.996,1.821,1.272,0.514,0.950,0.871,���쓌,3.6,��
2017/09/16,15:20,0.958,1.532,0.994,1.821,1.273,0.515,0.949,0.871,���쓌,3.5,��
2017/09/16,15:30,0.959,1.537,0.994,1.824,1.273,0.513,0.947,0.871,���쓌,4.2,��
2017/09/16,15:40,0.959,1.537,0.995,1.821,1.272,0.513,0.951,0.870,���쓌,4.4,��
2017/09/16,15:50,0.956,1.533,0.995,1.821,1.273,0.513,0.950,0.872,���쓌,4.0,��
2017/09/16,16:00,0.959,1.535,0.996,1.820,1.276,0.514,0.949,0.871,���쓌,4.1,��
2017/09/16,16:10,0.960,1.533,0.996,1.823,1.273,0.513,0.949,0.872,���쓌,3.5,��
2017/09/16,16:20,0.959,1.535,0.997,1.821,1.275,0.514,0.948,0.871,�쓌,3.7,��
2017/09/16,16:30,0.958,1.538,1.000,1.824,1.274,0.514,0.949,0.872,���쓌,3.4,��
2017/09/16,16:40,0.959,1.535,0.996,1.821,1.272,0.515,0.950,0.870,���쓌,3.8,��
2017/09/16,16:50,0.959,1.535,1.000,1.822,1.275,0.514,0.947,0.873,���쓌,3.6,��
2017/09/16,17:00,0.960,1.539,1.000,1.821,1.273,0.517,0.949,0.873,���쓌,4.4,��
2017/09/16,17:10,0.960,1.538,1.000,1.820,1.274,0.515,0.948,0.872,���쓌,4.3,��
2017/09/16,17:20,0.957,1.538,1.002,1.821,1.273,0.514,0.947,0.875,���쓌,3.9,��
2017/09/16,17:30,0.960,1.535,0.999,1.824,1.276,0.514,0.949,0.872,���쓌,4.4,��
2017/09/16,17:40,0.958,1.539,1.001,1.824,1.274,0.514,0.950,0.873,���쓌,4.3,��
2017/09/16,17:50,0.959,1.539,1.001,1.822,1.273,0.517,0.949,0.874,���쓌,4.1,��
2017/09/16,18:00,0.957,1.541,1.000,1.823,1.272,0.515,0.949,0.876,���쓌,4.8,��
2017/09/16,18:10,0.960,1.541,1.000,1.821,1.277,0.517,0.950,0.876,���쓌,3.6,��
2017/09/16,18:20,0.961,1.541,1.001,1.824,1.277,0.516,0.950,0.873,���쓌,3.9,��
2017/09/16,18:30,0.959,1.538,1.000,1.825,1.271,0.516,0.949,0.872,���쓌,3.6,��
2017/09/16,18:40,0.960,1.540,0.999,1.824,1.273,0.515,0.950,0.874,���쓌,4.1,��
2017/09/16,18:50,0.957,1.535,1.000,1.825,1.275,0.516,0.948,0.874,���쓌,4.1,��
2017/09/16,19:00,0.961,1.540,1.000,1.825,1.271,0.515,0.950,0.873,���쓌,3.8,��
2017/09/16,19:10,0.960,1.542,1.000,1.824,1.274,0.516,0.951,0.874,���쓌,4.6,��
2017/09/16,19:20,0.960,1.541,0.999,1.822,1.275,0.516,0.952,0.875,���쓌,4.1,��
2017/09/16,19:30,0.958,1.539,1.001,1.821,1.274,0.517,0.951,0.874,�쓌,4.5,��
2017/09/16,19:40,0.960,1.539,1.001,1.825,1.274,0.515,0.949,0.876,���쓌,4.6,��
2017/09/16,19:50,0.960,1.542,1.001,1.822,1.272,0.517,0.949,0.873,�쓌,3.8,��
2017/09/16,20:00,0.959,1.540,0.999,1.824,1.272,0.514,0.950,0.873,���쓌,4.0,��
2017/09/16,20:10,0.961,1.539,1.000,1.823,1.276,0.516,0.951,0.874,�쓌,4.1,��
2017/09/16,20:20,0.960,1.541,1.002,1.825,1.275,0.516,0.950,0.874,�쓌,3.9,��
2017/09/16,20:30,0.959,1.540,0.999,1.824,1.276,0.515,0.951,0.875,���쓌,4.1,��
2017/09/16,20:40,0.959,1.539,0.999,1.822,1.274,0.515,0.951,0.873,���쓌,4.2,��
2017/09/16,20:50,0.961,1.538,1.001,1.826,1.274,0.516,0.950,0.876,���쓌,3.8,��
2017/09/16,21:00,0.960,1.537,0.999,1.822,1.276,0.516,0.950,0.873,���쓌,3.3,��
2017/09/16,21:10,0.959,1.539,0.998,1.825,1.272,0.516,0.951,0.874,���쓌,4.1,��
2017/09/16,21:20,0.959,1.538,1.000,1.826,1.275,0.516,0.951,0.875,���쓌,4.1,��
2017/09/16,21:30,0.961,1.541,1.000,1.822,1.275,0.514,0.952,0.875,���쓌,4.2,��
2017/09/16,21:40,0.963,1.541,1.001,1.821,1.274,0.514,0.951,0.874,���쓌,4.3,��
2017/09/16,21:50,0.961,1.541,0.999,1.824,1.274,0.516,0.951,0.874,���쓌,4.6,��
2017/09/16,22:00,0.960,1.537,1.001,1.822,1.275,0.514,0.951,0.874,���쓌,4.2,��
2017/09/16,22:10,0.962,1.537,1.000,1.823,1.273,0.515,0.950,0.875,���쓌,4.2,��
2017/09/16,22:20,0.961,1.540,0.999,1.822,1.273,0.514,0.949,0.873,���쓌,4.0,��
2017/09/16,22:30,0.961,1.540,1.000,1.825,1.275,0.516,0.950,0.873,���쓌,3.8,��
2017/09/16,22:40,0.960,1.541,1.000,1.824,1.273,0.515,0.952,0.875,���쓌,4.4,��
2017/09/16,22:50,0.960,1.537,1.002,1.824,1.272,0.516,0.951,0.874,���쓌,4.1,��
2017/09/16,23:00,0.958,1.540,0.999,1.822,1.274,0.516,0.950,0.875,���쓌,4.6,��
2017/09/16,23:10,0.961,1.539,1.001,1.823,1.275,0.515,0.951,0.874,���쓌,4.0,��
2017/09/16,23:20,0.961,1.537,0.998,1.822,1.274,0.514,0.951,0.873,���쓌,3.8,��
2017/09/16,23:30,0.963,1.541,0.999,1.822,1.275,0.516,0.951,0.873,���쓌,4.5,��
2017/09/16,23:40,0.962,1.540,1.000,1.825,1.274,0.515,0.951,0.873,���쓌,4.4,��
2017/09/16,23:50,0.961,1.542,0.998,1.824,1.278,0.516,0.950,0.874,���쓌,3.9,��
